Tiempo cada hora 2-e Itkulovo

Hoy, 13 Junio, Domingo

Tiempo Temperatura Precipitaciones Viento Presión Humedad
00:00 +17°C° 0.2 mm 3 mps 716 mmHg 70%
01:00 +15°C° 0.2 mm 2 mps 716 mmHg 82%
02:00 +15°C° 0.1 mm 2 mps 716 mmHg 77%
03:00 +14°C° 0.1 mm 3 mps 716 mmHg 73%
04:00 +14°C° 0.1 mm 3 mps 716 mmHg 68%
05:00 +14°C° 0 mm 4 mps 717 mmHg 63%
06:00 +15°C° 0 mm 4 mps 717 mmHg 57%
07:00 +15°C° 0 mm 4 mps 717 mmHg 52%
08:00 +17°C° 0.3 mm 4 mps 717 mmHg 58%
09:00 +17°C° 0.3 mm 4 mps 717 mmHg 64%
10:00 +18°C° 0.3 mm 4 mps 718 mmHg 70%
11:00 +17°C° 0.7 mm 4 mps 717 mmHg 73%
12:00 +15°C° 0.7 mm 4 mps 717 mmHg 76%
13:00 +14°C° 0.7 mm 4 mps 717 mmHg 79%
14:00 +17°C° 0 mm 4 mps 717 mmHg 69%
15:00 +19°C° 0 mm 5 mps 717 mmHg 59%
16:00 +21°C° 0 mm 5 mps 717 mmHg 49%
17:00 +20°C° 0 mm 4 mps 717 mmHg 54%
18:00 +20°C° 0 mm 3 mps 717 mmHg 58%
19:00 +19°C° 0 mm 2 mps 717 mmHg 63%
20:00 +19°C° 0 mm 2 mps 717 mmHg 59%
21:00 +18°C° 0 mm 2 mps 717 mmHg 55%
22:00 +18°C° 0 mm 3 mps 717 mmHg 50%
23:00 +17°C° 0 mm 2 mps 717 mmHg 51%

Mañana, 14 Junio, Lunes

Tiempo Temperatura Precipitaciones Viento Presión Humedad
00:00 +16°C° 0 mm 2 mps 717 mmHg 51%
01:00 +15°C° 0 mm 2 mps 717 mmHg 51%
02:00 +15°C° 0 mm 2 mps 718 mmHg 50%
03:00 +15°C° 0 mm 2 mps 718 mmHg 49%
04:00 +15°C° 0 mm 2 mps 718 mmHg 47%
05:00 +16°C° 0 mm 3 mps 718 mmHg 48%
06:00 +18°C° 0 mm 3 mps 719 mmHg 49%
07:00 +19°C° 0 mm 3 mps 719 mmHg 50%
08:00 +20°C° 0 mm 4 mps 719 mmHg 46%
09:00 +22°C° 0 mm 5 mps 719 mmHg 43%
10:00 +23°C° 0 mm 5 mps 719 mmHg 39%
11:00 +25°C° 0 mm 5 mps 719 mmHg 38%
12:00 +26°C° 0 mm 5 mps 719 mmHg 36%
13:00 +26°C° 0 mm 5 mps 719 mmHg 34%
14:00 +26°C° 0 mm 5 mps 719 mmHg 35%
15:00 +26°C° 0 mm 4 mps 719 mmHg 36%
16:00 +26°C° 0 mm 4 mps 719 mmHg 37%
17:00 +25°C° 0 mm 3 mps 719 mmHg 44%
18:00 +24°C° 0 mm 2 mps 718 mmHg 52%
19:00 +23°C° 0 mm 2 mps 718 mmHg 59%
20:00 +21°C° 0 mm 1 mps 718 mmHg 58%
21:00 +20°C° 0 mm 1 mps 718 mmHg 58%
22:00 +18°C° 0 mm 1 mps 718 mmHg 58%
23:00 +18°C° 0 mm 1 mps 718 mmHg 58%

Pasado mañana, 15 Junio, Martes

Tiempo Temperatura Precipitaciones Viento Presión Humedad
00:00 +16°C° 0 mm 1 mps 718 mmHg 58%
01:00 +16°C° 0 mm 1 mps 717 mmHg 59%
02:00 +16°C° 0 mm 1 mps 717 mmHg 59%
03:00 +15°C° 0 mm 1 mps 717 mmHg 60%
04:00 +15°C° 0 mm 1 mps 717 mmHg 61%
05:00 +18°C° 0 mm 1 mps 718 mmHg 59%
06:00 +19°C° 0 mm 2 mps 718 mmHg 57%
07:00 +21°C° 0 mm 2 mps 718 mmHg 55%
08:00 +23°C° 0 mm 2 mps 718 mmHg 51%
09:00 +25°C° 0 mm 3 mps 718 mmHg 47%
10:00 +26°C° 0 mm 3 mps 718 mmHg 43%
11:00 +27°C° 0 mm 3 mps 718 mmHg 41%
12:00 +27°C° 0 mm 3 mps 718 mmHg 39%
13:00 +28°C° 0 mm 3 mps 717 mmHg 37%
14:00 +28°C° 0 mm 3 mps 717 mmHg 37%
15:00 +28°C° 0 mm 3 mps 717 mmHg 36%
16:00 +28°C° 0 mm 2 mps 717 mmHg 36%
17:00 +27°C° 0 mm 2 mps 716 mmHg 43%
18:00 +26°C° 0 mm 1 mps 716 mmHg 50%
19:00 +24°C° 0 mm 1 mps 716 mmHg 57%
20:00 +23°C° 0 mm 1 mps 715 mmHg 57%
21:00 +21°C° 0 mm 1 mps 715 mmHg 56%
22:00 +17°C° 0 mm 0 mps 715 mmHg 55%
23:00 +19°C° 0 mm 1 mps 715 mmHg 55%

16 Junio, Miércoles

Tiempo Temperatura Precipitaciones Viento Presión Humedad
00:00 +19°C° 0 mm 1 mps 714 mmHg 56%
01:00 +18°C° 0 mm 1 mps 714 mmHg 56%
02:00 +18°C° 0 mm 1 mps 714 mmHg 56%
03:00 +18°C° 0 mm 1 mps 714 mmHg 57%
04:00 +16°C° 0 mm 1 mps 714 mmHg 58%
05:00 +19°C° 0 mm 1 mps 715 mmHg 57%
06:00 +21°C° 0 mm 1 mps 715 mmHg 55%
07:00 +23°C° 0 mm 2 mps 715 mmHg 54%
08:00 +25°C° 0 mm 2 mps 715 mmHg 49%
09:00 +26°C° 0 mm 3 mps 715 mmHg 44%
10:00 +28°C° 0 mm 4 mps 715 mmHg 38%
11:00 +29°C° 0 mm 4 mps 715 mmHg 37%
12:00 +29°C° 0 mm 3 mps 715 mmHg 36%
13:00 +30°C° 0 mm 3 mps 715 mmHg 35%
14:00 +29°C° 0 mm 4 mps 714 mmHg 37%
15:00 +29°C° 0 mm 4 mps 714 mmHg 39%
16:00 +29°C° 0 mm 4 mps 714 mmHg 41%
17:00 +28°C° 0 mm 3 mps 714 mmHg 46%
18:00 +27°C° 0 mm 2 mps 714 mmHg 52%
19:00 +25°C° 0 mm 2 mps 713 mmHg 58%
20:00 +24°C° 0 mm 2 mps 713 mmHg 56%
21:00 +23°C° 0 mm 2 mps 713 mmHg 55%
22:00 +21°C° 0 mm 2 mps 712 mmHg 53%
23:00 +21°C° 0 mm 2 mps 712 mmHg 52%

17 Junio, Jueves

Tiempo Temperatura Precipitaciones Viento Presión Humedad
00:00 +20°C° 0 mm 2 mps 711 mmHg 52%
01:00 +20°C° 0 mm 2 mps 711 mmHg 51%
02:00 +19°C° 0.2 mm 2 mps 711 mmHg 61%
03:00 +17°C° 0.2 mm 2 mps 710 mmHg 71%
04:00 +16°C° 0.2 mm 2 mps 710 mmHg 81%
05:00 +17°C° 0 mm 2 mps 710 mmHg 79%
06:00 +19°C° 0 mm 2 mps 710 mmHg 77%
07:00 +21°C° 0 mm 2 mps 710 mmHg 75%
08:00 +22°C° 0 mm 4 mps 710 mmHg 67%
09:00 +25°C° 0 mm 5 mps 710 mmHg 59%
10:00 +27°C° 0 mm 7 mps 710 mmHg 51%
11:00 +26°C° 0 mm 7 mps 709 mmHg 53%
12:00 +26°C° 0 mm 7 mps 709 mmHg 54%
13:00 +26°C° 0 mm 8 mps 709 mmHg 56%
14:00 +24°C° 0.1 mm 7 mps 709 mmHg 64%
15:00 +23°C° 0.1 mm 7 mps 709 mmHg 71%
16:00 +22°C° 0.1 mm 6 mps 709 mmHg 79%
17:00 +20°C° 0.1 mm 6 mps 709 mmHg 83%
18:00 +19°C° 0.1 mm 6 mps 709 mmHg 86%
19:00 +16°C° 0.1 mm 6 mps 709 mmHg 90%
20:00 +15°C° 0 mm 6 mps 709 mmHg 89%
21:00 +14°C° 0 mm 6 mps 709 mmHg 88%
22:00 +12°C° 0 mm 7 mps 710 mmHg 87%
23:00 +11°C° 0 mm 6 mps 710 mmHg 87%

18 Junio, Viernes

Tiempo Temperatura Precipitaciones Viento Presión Humedad
00:00 +10°C° 0 mm 6 mps 710 mmHg 87%
01:00 +9°C° 0 mm 6 mps 710 mmHg 88%
02:00 +8°C° 0 mm 6 mps 711 mmHg 87%
03:00 +8°C° 0 mm 6 mps 711 mmHg 85%
04:00 +7°C° 0 mm 6 mps 711 mmHg 84%
05:00 +8°C° 0 mm 7 mps 712 mmHg 77%
06:00 +8°C° 0 mm 7 mps 712 mmHg 70%
07:00 +9°C° 0 mm 8 mps 712 mmHg 63%
08:00 +10°C° 0 mm 8 mps 712 mmHg 54%
09:00 +11°C° 0 mm 8 mps 713 mmHg 46%
10:00 +13°C° 0 mm 8 mps 713 mmHg 37%
11:00 +15°C° 0 mm 8 mps 713 mmHg 35%
12:00 +16°C° 0 mm 8 mps 713 mmHg 33%
13:00 +16°C° 0 mm 8 mps 714 mmHg 30%
14:00 +17°C° 0 mm 8 mps 714 mmHg 31%
15:00 +17°C° 0 mm 8 mps 714 mmHg 32%
16:00 +17°C° 0 mm 8 mps 714 mmHg 32%
17:00 +16°C° 0 mm 7 mps 715 mmHg 39%
18:00 +15°C° 0 mm 7 mps 715 mmHg 45%
19:00 +12°C° 0 mm 7 mps 715 mmHg 51%
20:00 +11°C° 0 mm 6 mps 715 mmHg 55%
21:00 +10°C° 0 mm 5 mps 716 mmHg 59%
22:00 +10°C° 0 mm 4 mps 716 mmHg 64%
23:00 +9°C° 0 mm 3 mps 716 mmHg 70%
Mostrar más

Necesitamos Su Consentimiento

Meteoprog y nuestros Proveedores de Servicios pueden almacenar y acceder a sus datos personales como cookies, identificadores de dispositivo u otras tecnologías similares de su dispositivo y procesar dichos datos para personalizar contenido y anuncios, además de ofrecer funciones de redes sociales y analizar el tráfico.

  • Almacenar y/o acceder a información en su dispositivo

    Se puede almacenar o acceder a cookies, identificadores de dispositivo u otra información de su dispositivo para los fines anteriormente indicados.

  • Anuncios y contenido personalizados, medición de anuncios y contenido, percepciones del público, y desarrollo de productos

    Los anuncios y el contenido pueden personalizarse en base a su perfil. Se pueden añadir más datos para personalizar mejor los anuncios y contenidos. Se puede medir el rendimiento de los anuncios y contenidos. Se puede obtener la percepción sobre el público que ha visto los anuncios y contenidos. Dichos datos pueden usarse para desarrollar o mejorar la experiencia del usuario, sistemas y software.

Al hacer clic en ‘Estoy De Acuerdo’ usted permitirá el uso de las cookies, identificadores de dispositivo, balizas web u otras tecnologías similares indicadas. Su configuración puede cambiarse desde el navegador de su dispositivo.

Para ciertos fines, los intereses legítimos pueden ser considerados por encima del consentimiento. Puede leer más sobre ello en nuestra Política de Privacidad y Cookies.